Location: Bucharest
(44.4268°N, 26.1025°E)
Time: 15:28:43
(UTC+03:00)

CUTE 1.7 + AOD 2 - Pass Details

Date: 27 June 2022
Orbit: 589 x 608 km, 97.7° (Epoch: 14 August)

Event Time Altitude Azimuth Distance (km) Brightness Sun altitude
Rises 04:22:21 0° 24° (NNE) 2,858 ? -10.3°
Reaches altitude 10° 04:24:52 10° 38° (NE) 1,946 ? -10.0°
Maximum altitude 04:28:22 25° 94° (E) 1,217 ? -9.6°
Drops below altitude 10° 04:31:50 10° 151° (SSE) 1,922 ? -9.1°
Sets 04:34:17 0° 164° (SSE) 2,815 ? -8.8°
